Date String (YYYY-MM-DD hh:mm:ss) UTC,Instrument flags,Ambient pressure (hPa),Sample flow (lpm),Bypass flow (lpm),Sample temperature (°C),Ambient temperature (°C),ASC tube jacket temperature (°C),LED temperature (°C),Box temperature (°C),Sample RH (%),Span deviation,Mass concentration (μg/m³),Mass concentration (μg/m³),Mass concentration (μg/m³)
DateTimeUTC,F1_M11,P_M11,Q1_M11,Q2_M11,T1_M11,T2_M11,T3_M11,T4_M11,T5_M11,U1_M11,ZSPAN_M11,X0_M11,X2_M11,X1_M11
2021-10-31 06:00:00,,0830.1,5.00,0.00,29.7,28.8,00.0,38.8,31.5,15.8,0000.0,0007.52,0002.72,0002.19
2021-10-31 06:01:00,,0830.1,5.00,0.00,29.7,28.8,00.0,38.8,31.5,15.8,0000.0,0007.16,0002.71,0002.19
2021-10-31 06:02:00,,0830.1,5.00,0.00,29.7,28.8,00.0,38.8,31.5,15.8,0000.0,0006.44,0002.64,0002.17
2021-10-31 06:03:00,,0830.1,5.01,0.00,29.7,28.8,00.0,38.8,31.5,15.8,0000.0,0006.27,0002.62,0002.14
2021-10-31 06:04:00,,0830.1,4.98,0.00,29.7,28.8,00.0,38.8,31.5,15.8,0000.0,0005.24,0002.63,0002.11
2021-10-31 06:05:00,,0830.1,5.00,0.00,29.7,28.8,00.0,38.7,31.4,15.8,0000.0,0005.18,0002.63,0002.08
2021-10-31 06:06:00,,0830.1,4.99,0.00,29.7,28.8,00.0,38.8,31.5,15.8,0000.0,0005.23,0002.60,0002.04
2021-10-31 06:07:00,,0830.1,5.00,0.00,29.7,28.8,00.0,38.7,31.4,15.8,0000.0,0007.01,0002.57,0002.01
2021-10-31 06:08:00,,0830.1,5.00,0.00,29.7,28.8,00.0,38.7,31.4,15.8,0000.0,0007.33,0002.53,0001.98
2021-10-31 06:09:00,,0830.1,5.01,0.00,29.7,28.8,00.0,38.7,31.4,15.8,0000.0,0007.20,0002.49,0001.95
2021-10-31 06:10:00,,0830.1,5.00,0.00,29.7,28.8,00.0,38.7,31.4,15.8,0000.0,0007.16,0002.51,0001.92
2021-10-31 06:11:00,,0830.1,5.00,0.00,29.7,28.8,00.0,38.7,31.4,15.8,0000.0,0007.30,0002.51,0001.90
2021-10-31 06:12:00,,0830.1,4.99,0.00,29.7,28.8,00.0,38.7,31.4,15.8,0000.0,0007.83,0002.48,0001.87
2021-10-31 06:13:00,,0830.1,5.00,0.00,29.7,28.8,00.0,38.7,31.4,15.8,0000.0,0008.54,0002.53,0001.85
2021-10-31 06:14:00,,0830.2,5.00,0.00,29.7,28.8,00.0,38.7,31.4,15.7,0000.0,0008.85,0002.54,0001.82
2021-10-31 06:15:00,,0830.1,4.99,0.00,29.6,28.7,00.0,38.7,31.4,15.6,0000.0,0008.73,0002.45,0001.78
2021-10-31 06:16:00,,0830.1,5.01,0.00,29.6,28.7,00.0,38.7,31.4,15.6,0000.0,0008.66,0002.40,0001.74
2021-10-31 06:17:00,,0830.2,5.00,0.00,29.6,28.7,00.0,38.7,31.4,15.5,0000.0,0008.81,0002.37,0001.70
2021-10-31 06:18:00,,0830.1,5.01,0.00,29.6,28.7,00.0,38.7,31.4,15.5,0000.0,0008.15,0002.33,0001.65
2021-10-31 06:19:00,,0830.1,4.99,0.00,29.6,28.7,00.0,38.7,31.4,15.5,0000.0,0007.75,0002.31,0001.62
2021-10-31 06:20:00,,0830.1,5.00,0.00,29.6,28.7,00.0,38.7,31.4,15.5,0000.0,0007.56,0002.26,0001.60
2021-10-31 06:21:00,,0830.1,5.00,0.00,29.6,28.7,00.0,38.7,31.4,15.6,0000.0,0007.52,0002.22,0001.58
2021-10-31 06:22:00,,0830.1,5.00,0.00,29.6,28.7,00.0,38.7,31.4,15.6,0000.0,0006.97,0002.17,0001.56
2021-10-31 06:23:00,,0830.1,5.00,0.00,29.6,28.7,00.0,38.7,31.4,15.6,0000.0,0006.55,0002.14,0001.54
2021-10-31 06:24:00,,0830.1,5.01,0.00,29.6,28.7,00.0,38.7,31.3,15.6,0000.0,0006.80,0002.04,0001.53
2021-10-31 06:25:00,,0830.1,4.99,0.00,29.6,28.7,00.0,38.7,31.3,15.6,0000.0,0006.25,0001.99,0001.52
2021-10-31 06:26:00,,0830.1,5.00,0.00,29.6,28.7,00.0,38.7,31.3,15.6,0000.0,0006.35,0001.99,0001.52
2021-10-31 06:27:00,,0830.1,4.99,0.00,29.6,28.7,00.0,38.7,31.3,15.5,0000.0,0006.51,0002.03,0001.53
2021-10-31 06:28:00,,0830.1,4.99,0.00,29.6,28.7,00.0,38.7,31.3,15.5,0000.0,0006.12,0001.98,0001.53
2021-10-31 06:29:00,,0830.0,5.01,0.00,29.6,28.7,00.0,38.7,31.3,15.5,0000.0,0005.64,0002.01,0001.55
2021-10-31 06:30:00,,0830.0,5.00,0.00,29.6,28.7,00.0,38.7,31.3,15.5,0000.0,0005.85,0002.06,0001.55
2021-10-31 06:31:00,,0830.0,5.00,0.00,29.6,28.7,00.0,38.6,31.3,15.4,0000.0,0006.07,0002.10,0001.55
2021-10-31 06:32:00,,0830.1,4.99,0.00,29.6,28.6,00.0,38.6,31.3,15.4,0000.0,0006.02,0002.05,0001.55
2021-10-31 06:33:00,,0830.1,5.00,0.00,29.6,28.6,00.0,38.6,31.3,15.4,0000.0,0007.23,0002.10,0001.56
2021-10-31 06:34:00,,0830.1,5.00,0.00,29.6,28.7,00.0,38.6,31.3,15.4,0000.0,0007.72,0002.15,0001.56
2021-10-31 06:35:00,,0830.1,5.00,0.00,29.6,28.7,00.0,38.6,31.3,15.4,0000.0,0007.25,0002.21,0001.56
2021-10-31 06:36:00,,0830.1,4.99,0.00,29.5,28.6,00.0,38.6,31.3,15.4,0000.0,0006.99,0002.23,0001.56
2021-10-31 06:37:00,,0830.1,5.00,0.00,29.5,28.6,00.0,38.6,31.3,15.5,0000.0,0007.16,0002.26,0001.56
2021-10-31 06:38:00,,0830.1,5.01,0.00,29.5,28.6,00.0,38.6,31.3,15.5,0000.0,0007.56,0002.25,0001.57
2021-10-31 06:39:00,,0830.0,5.01,0.00,29.5,28.6,00.0,38.6,31.3,15.5,0000.0,0008.03,0002.25,0001.57
2021-10-31 06:40:00,,0830.0,4.99,0.00,29.5,28.6,00.0,38.6,31.3,15.5,0000.0,0008.09,0002.27,0001.57
2021-10-31 06:41:00,,0830.0,5.00,0.00,29.5,28.6,00.0,38.6,31.3,15.5,0000.0,0008.05,0002.22,0001.56
2021-10-31 06:42:00,,0829.9,5.00,0.00,29.5,28.6,00.0,38.6,31.3,15.5,0000.0,0008.04,0002.24,0001.57
2021-10-31 06:43:00,,0829.9,5.00,0.00,29.5,28.6,00.0,38.6,31.3,15.5,0000.0,0008.09,0002.30,0001.57
2021-10-31 06:44:00,,0830.0,5.01,0.00,29.5,28.6,00.0,38.6,31.3,15.5,0000.0,0007.47,0002.27,0001.56
2021-10-31 06:45:00,,0830.0,5.00,0.00,29.5,28.6,00.0,38.6,31.3,15.4,0000.0,0007.46,0002.23,0001.56
2021-10-31 06:46:00,,0829.9,5.00,0.00,29.5,28.6,00.0,38.6,31.3,15.4,0000.0,0007.42,0002.16,0001.56
2021-10-31 06:47:00,,0830.0,5.00,0.00,29.5,28.6,00.0,38.6,31.3,15.5,0000.0,0008.02,0002.15,0001.56
2021-10-31 06:48:00,,0830.0,5.01,0.00,29.5,28.6,00.0,38.6,31.3,15.5,0000.0,0008.10,0002.11,0001.56
2021-10-31 06:49:00,,0829.8,5.00,0.00,29.5,28.6,00.0,38.6,31.3,15.5,0000.0,0007.69,0002.09,0001.56
2021-10-31 06:50:00,,0830.0,5.00,0.00,29.5,28.6,00.0,38.6,31.3,15.5,0000.0,0007.24,0002.13,0001.55
2021-10-31 06:51:00,,0830.0,5.00,0.00,29.5,28.6,00.0,38.6,31.3,15.5,0000.0,0007.21,0002.11,0001.54
2021-10-31 06:52:00,,0829.8,4.99,0.00,29.5,28.6,00.0,38.6,31.3,15.5,0000.0,0007.25,0002.12,0001.54
2021-10-31 06:53:00,,0829.9,5.01,0.00,29.5,28.6,00.0,38.5,31.3,15.5,0000.0,0007.11,0002.09,0001.53
2021-10-31 06:54:00,,0829.8,5.01,0.00,29.5,28.6,00.0,38.5,31.3,15.5,0000.0,0007.08,0002.07,0001.53
2021-10-31 06:55:00,,0829.8,4.98,0.00,29.5,28.6,00.0,38.5,31.3,15.5,0000.0,0006.85,0002.06,0001.54
2021-10-31 06:56:00,,0829.9,5.00,0.00,29.5,28.6,00.0,38.5,31.3,15.5,0000.0,0006.58,0002.04,0001.54
2021-10-31 06:57:00,,0829.8,5.01,0.00,29.5,28.6,00.0,38.5,31.3,15.4,0000.0,0006.06,0002.04,0001.54
2021-10-31 06:58:00,,0829.9,4.99,0.00,29.5,28.6,00.0,38.5,31.2,15.4,0000.0,0005.14,0002.06,0001.55
2021-10-31 06:59:00,,0829.9,5.00,0.00,29.5,28.6,00.0,38.5,31.2,15.4,0000.0,0004.60,0002.08,0001.55
